Location: Pic du Midi - T1M
(42.9366°N, 0.1426°E)
Time: 12:02:29
(UTC+01:00)

DX 1 - Pass Details

Date: 26 September 2021
Orbit: 618 x 630 km, 98.4° (Epoch: 25 October)

Event Time Altitude Azimuth Distance (km) Brightness Sun altitude
Rises 21:20:47 0° 9° (N) 2,898 ? -27.7°
Reaches altitude 10° 21:23:00 10° 5° (N) 1,988 ? -28.1°
Enters shadow 21:25:56 39° 342° (NNW) 939 ? -28.5°
